Location: Hawkeye Observatory
(42.4390°N, 89.3267°W)
Time: 14:29:25
(UTC-06:00)

N. Korean satellite - Visible Passes

Search period start: 07 February 2023 00:00
Search period end: 17 February 2023 00:00
Orbit: 406 x 441 km, 97.3° (Epoch: 07 February)

Date Brightness Start Highest point End Pass type
(mag) Time Alt. Az. Time Alt. Az. Time Alt. Az.
07 Feb 9.8 04:21:15 10° ENE 04:22:24 11° E 04:23:33 10° ESE visible
07 Feb 6.9 05:51:47 10° N 05:54:47 35° WNW 05:57:47 10° SW visible
08 Feb 7.1 05:08:39 10° NNE 05:11:51 51° E 05:15:02 10° S visible
09 Feb 9.6 04:26:48 10° ENE 04:28:33 14° E 04:30:18 10° SE visible
09 Feb 7.1 05:57:58 10° N 06:00:50 29° WNW 06:03:44 10° SW visible
10 Feb 6.7 05:14:29 10° NNE 05:17:44 63° E 05:20:59 10° S visible
11 Feb 9.4 04:32:08 10° NE 04:34:16 16° E 04:36:23 10° SE visible
11 Feb 7.4 06:03:44 10° NNW 06:06:29 25° WNW 06:09:13 10° SW visible
12 Feb 6.4 05:19:55 10° NNE 05:23:12 77° ESE 05:26:29 10° S visible
13 Feb 9.2 04:37:10 10° NE 04:39:34 19° E 04:41:57 10° SE visible
13 Feb 7.6 06:09:06 10° NNW 06:11:42 22° WNW 06:14:17 10° WSW visible
14 Feb 6.2 05:24:58 10° NNE 05:28:15 89° W 05:31:32 10° SSW visible
15 Feb 9.0 04:41:50 10° NE 04:44:26 21° E 04:47:01 10° SSE visible
15 Feb 7.7 06:14:05 10° NNW 06:16:30 19° WNW 06:18:55 10° WSW visible
16 Feb 6.2 05:29:36 10° N 05:32:52 77° WNW 05:36:09 10° SSW visible
